Glenwood, MN

7:25 AM CDT on April 26, 2017 (GMT -0500)
Glenwood Municipal

Weather History for KGHW - December, 2012

Change the Weather History Date:

Thursday, December 27, 2012

  Actual Average Record
Temperature  
Mean Temperature 8 °F -  
Max Temperature 15 °F 22 °F 46 °F (1959)
Min Temperature 1 °F 4 °F -19 °F (1951)
Degree Days  
Heating Degree Days 57    
Moisture  
Dew Point 8 °F    
Average Humidity 86    
Maximum Humidity 93    
Minimum Humidity 79    
Precipitation  
Precipitation 0.00 in - - ()
Sea Level Pressure  
Sea Level Pressure 30.16 in    
Wind  
Wind Speed 6 mph (ENE)    
Max Wind Speed 9 mph    
Max Gust Speed -    
Visibility 6 miles    
Events Snow    
Averages and records for this station are not official NWS values.
T = Trace of Precipitation, MM = Missing Value Source: NWS Daily Summary

Daily Weather History Graph

Daily Weather History Graph

Search for Another Location

Airport or City:

Trip Planner

Search our weather history database for the weather conditions in past years. The results will help you decide how hot, cold, wet, or windy it might be!

Date:

Astronomy

Dec. 27, 2012 Rise Set
Actual Time 8:01 AM CST 4:44 PM CST
Civil Twilight 7:27 AM CST 5:18 PM CST
Nautical Twilight 6:49 AM CST 5:56 PM CST
Astronomical Twilight 6:13 AM CST 6:32 PM CST
Moon 4:30 PM CST (12/27) 7:11 AM CST (12/27)
Length of Visible Light 9h 51m
Length of Day
8h 42m
Full, 100% of the Moon is Illuminated
Dec 27
Full
Dec 28
Full
Jan 4
Last Quarter
Jan 11
New
Jan 18
First Quarter

Hourly Weather History & Observations

Time (CST) Temp. Windchill Dew Point Humidity Pressure Visibility Wind Dir Wind Speed Gust Speed Precip Events Conditions
12:13 AM 1.4 °F -9.9 °F -0.4 °F 92% 30.21 in 10.0 mi NE 5.8 mph - N/A   Overcast
12:33 AM 3.2 °F -4.2 °F -0.4 °F 85% 30.21 in 10.0 mi NE 3.5 mph - N/A   Overcast
12:54 AM 3.2 °F -6.2 °F 1.4 °F 92% 30.21 in 10.0 mi NE 4.6 mph - N/A   Overcast
1:13 AM 5.0 °F -5.6 °F 1.4 °F 85% 30.21 in 10.0 mi NE 5.8 mph - N/A   Overcast
1:33 AM 5.0 °F -5.6 °F 1.4 °F 85% 30.20 in 10.0 mi NE 5.8 mph - N/A   Overcast
1:54 AM 6.8 °F -3.5 °F 3.2 °F 85% 30.20 in 10.0 mi ENE 5.8 mph - N/A   Overcast
2:13 AM 6.8 °F -3.5 °F 3.2 °F 85% 30.20 in 10.0 mi ENE 5.8 mph - N/A   Overcast
2:33 AM 6.8 °F -4.8 °F 3.2 °F 85% 30.21 in 10.0 mi ENE 6.9 mph - N/A   Overcast
2:54 AM 6.8 °F -3.5 °F 3.2 °F 85% 30.20 in 10.0 mi ENE 5.8 mph - N/A   Overcast
3:13 AM 6.8 °F -3.5 °F 3.2 °F 85% 30.20 in 10.0 mi East 5.8 mph - N/A   Overcast
3:33 AM 6.8 °F -3.5 °F 3.2 °F 85% 30.20 in 10.0 mi East 5.8 mph - N/A   Overcast
3:54 AM 6.8 °F -2.0 °F 5.0 °F 92% 30.19 in 10.0 mi East 4.6 mph - N/A   Overcast
4:33 AM 8.6 °F -1.3 °F 5.0 °F 85% 30.19 in 10.0 mi ENE 5.8 mph - N/A   Overcast
4:54 AM 8.6 °F -2.6 °F 5.0 °F 85% 30.18 in 10.0 mi ENE 6.9 mph - N/A   Overcast
5:13 AM 8.6 °F 0.1 °F 5.0 °F 85% 30.19 in 10.0 mi East 4.6 mph - N/A   Overcast
5:54 AM 8.6 °F -1.3 °F 6.8 °F 92% 30.18 in 10.0 mi ENE 5.8 mph - N/A   Overcast
6:13 AM 8.6 °F 0.1 °F 6.8 °F 92% 30.18 in 10.0 mi ENE 4.6 mph - N/A   Overcast
6:33 AM 8.6 °F - 6.8 °F 92% 30.18 in 10.0 mi North - - N/A   Overcast
6:53 AM 8.6 °F 0.1 °F 6.8 °F 92% 30.19 in 10.0 mi East 4.6 mph - N/A   Overcast
7:34 AM 10.4 °F -0.4 °F 6.8 °F 85% 30.18 in 10.0 mi East 6.9 mph - N/A   Overcast
7:53 AM 10.4 °F -1.5 °F 6.8 °F 85% 30.17 in 10.0 mi East 8.1 mph - N/A   Overcast
8:13 AM 10.4 °F 2.2 °F 6.8 °F 85% 30.19 in 10.0 mi East 4.6 mph - N/A   Overcast
8:53 AM 10.4 °F 0.8 °F 6.8 °F 85% 30.19 in 10.0 mi East 5.8 mph - N/A   Overcast
9:13 AM 10.4 °F 0.8 °F 6.8 °F 85% 30.19 in 10.0 mi East 5.8 mph - N/A   Overcast
9:34 AM 10.4 °F 0.8 °F 6.8 °F 85% 30.19 in 10.0 mi East 5.8 mph - N/A   Overcast
9:53 AM 12.2 °F 2.9 °F 6.8 °F 79% 30.20 in 10.0 mi East 5.8 mph - N/A   Overcast
10:13 AM 12.2 °F 2.9 °F 6.8 °F 79% 30.20 in 10.0 mi East 5.8 mph - N/A   Overcast
10:34 AM 12.2 °F 1.7 °F 6.8 °F 79% 30.19 in 10.0 mi East 6.9 mph - N/A   Overcast
10:53 AM 12.2 °F 1.7 °F 6.8 °F 79% 30.19 in 10.0 mi East 6.9 mph - N/A   Overcast
11:13 AM 12.2 °F 4.3 °F 6.8 °F 79% 30.18 in 10.0 mi East 4.6 mph - N/A   Overcast
11:34 AM 12.2 °F 2.9 °F 8.6 °F 85% 30.18 in 10.0 mi East 5.8 mph - N/A   Overcast
11:53 AM 14.0 °F 5.1 °F 8.6 °F 79% 30.17 in 10.0 mi East 5.8 mph - N/A   Overcast
12:13 PM 14.0 °F 5.1 °F 8.6 °F 79% 30.16 in 5.0 mi East 5.8 mph - N/A Snow Light Snow
12:33 PM 14.0 °F 5.1 °F 8.6 °F 79% 30.15 in 7.0 mi East 5.8 mph - N/A Snow Light Snow
12:53 PM 14.0 °F 8.2 °F 8.6 °F 79% 30.14 in 7.0 mi ENE 3.5 mph - N/A Snow Light Snow
1:13 PM 15.8 °F 7.2 °F 10.4 °F 79% 30.14 in 2.0 mi East 5.8 mph - N/A Snow Light Snow
1:34 PM 15.8 °F 7.2 °F 10.4 °F 79% 30.14 in 1.5 mi East 5.8 mph - N/A Snow Light Snow
1:53 PM 15.8 °F 7.2 °F 10.4 °F 79% 30.13 in 1.0 mi East 5.8 mph - N/A Snow Light Snow
2:13 PM 15.8 °F 5.1 °F 10.4 °F 79% 30.13 in 2.0 mi East 8.1 mph - N/A Snow Light Snow
2:33 PM 15.8 °F 6.1 °F 12.2 °F 86% 30.12 in 2.5 mi East 6.9 mph - N/A Snow Light Snow
2:53 PM 15.8 °F 5.1 °F 12.2 °F 86% 30.13 in 2.0 mi East 8.1 mph - N/A Snow Light Snow
3:13 PM 15.8 °F 6.1 °F 12.2 °F 86% 30.13 in 1.8 mi East 6.9 mph - N/A Snow Light Snow
3:33 PM 15.8 °F 5.1 °F 12.2 °F 86% 30.13 in 2.5 mi East 8.1 mph - N/A Snow Light Snow
3:53 PM 15.8 °F 4.2 °F 12.2 °F 86% 30.13 in 2.5 mi East 9.2 mph - N/A Snow Light Snow
4:13 PM 15.8 °F 5.1 °F 12.2 °F 86% 30.13 in 2.0 mi East 8.1 mph - N/A Snow Light Snow
4:33 PM 15.8 °F 4.2 °F 12.2 °F 86% 30.13 in 2.5 mi East 9.2 mph - N/A Snow Light Snow
4:53 PM 15.8 °F 5.1 °F 12.2 °F 86% 30.13 in 4.0 mi East 8.1 mph - N/A Snow Light Snow
5:14 PM 15.8 °F 5.1 °F 12.2 °F 86% 30.13 in 3.0 mi East 8.1 mph - N/A Snow Light Snow
5:33 PM 15.8 °F 6.1 °F 12.2 °F 86% 30.13 in 2.5 mi East 6.9 mph - N/A Snow Light Snow
5:53 PM 15.8 °F 7.2 °F 12.2 °F 86% 30.13 in 2.0 mi ENE 5.8 mph - N/A Snow Light Snow
6:14 PM 15.8 °F 7.2 °F 12.2 °F 86% 30.13 in 2.5 mi ENE 5.8 mph - N/A Snow Light Snow
6:33 PM 15.8 °F 7.2 °F 12.2 °F 86% 30.13 in 2.5 mi ENE 5.8 mph - N/A Snow Light Snow
6:53 PM 15.8 °F 7.2 °F 12.2 °F 86% 30.13 in 3.0 mi ENE 5.8 mph - N/A Snow Light Snow
7:14 PM 15.8 °F 7.2 °F 12.2 °F 86% 30.13 in 2.5 mi ENE 5.8 mph - N/A Snow Light Snow
7:33 PM 14.0 °F 5.1 °F 12.2 °F 93% 30.13 in 4.0 mi ENE 5.8 mph - N/A Snow Light Snow
7:53 PM 12.2 °F 2.9 °F 10.4 °F 92% 30.13 in 5.0 mi ENE 5.8 mph - N/A Snow Light Snow
8:14 PM 12.2 °F 4.3 °F 10.4 °F 92% 30.13 in 5.0 mi ENE 4.6 mph - N/A Snow Light Snow
8:33 PM 12.2 °F 4.3 °F 10.4 °F 92% 30.13 in 5.0 mi ENE 4.6 mph - N/A Snow Light Snow
8:53 PM 12.2 °F 4.3 °F 10.4 °F 92% 30.13 in 2.0 mi ENE 4.6 mph - N/A Snow Light Snow
9:14 PM 12.2 °F 2.9 °F 10.4 °F 92% 30.12 in 2.5 mi ENE 5.8 mph - N/A Snow Light Snow
9:33 PM 12.2 °F 2.9 °F 10.4 °F 92% 30.12 in 4.0 mi ENE 5.8 mph - N/A Snow Light Snow
9:53 PM 12.2 °F 4.3 °F 10.4 °F 92% 30.12 in 5.0 mi ENE 4.6 mph - N/A Snow Light Snow
10:13 PM 12.2 °F 4.3 °F 10.4 °F 92% 30.12 in 3.0 mi ENE 4.6 mph - N/A Snow Light Snow
10:33 PM 12.2 °F 4.3 °F 10.4 °F 92% 30.12 in 5.0 mi ENE 4.6 mph - N/A Snow Light Snow
10:53 PM 14.0 °F 6.5 °F 12.2 °F 93% 30.13 in 3.0 mi ENE 4.6 mph - N/A Snow Light Snow
11:13 PM 14.0 °F 6.5 °F 12.2 °F 93% 30.12 in 2.0 mi ENE 4.6 mph - N/A Snow Light Snow
11:33 PM 14.0 °F 8.2 °F 12.2 °F 93% 30.12 in 1.0 mi East 3.5 mph - N/A Snow Snow
11:54 PM 14.0 °F 6.5 °F 12.2 °F 93% 30.11 in 1.2 mi ENE 4.6 mph - N/A Snow Light Snow